Location: El Diablo
(32.4667°N, 116.4500°W)
Time: 21:22:50
(UTC+00:00)

Hubble Space Telescope - Visible Passes

Search period start: 16 January 2026 00:00
Search period end: 26 January 2026 00:00
Orbit: 479 x 481 km, 28.5° (Epoch: 16 January)

Date Brightness Start Highest point End Pass type
(mag) Time Alt. Az. Time Alt. Az. Time Alt. Az.
21 Jan 2.9 02:38:11 10° S 02:39:48 12° SSE 02:39:52 12° SSE visible
22 Jan 2.9 02:08:24 10° S 02:10:03 12° SSE 02:11:43 10° SE visible
22 Jan 3.8 03:46:02 10° SW 03:46:02 10° SW 03:46:02 10° SW visible
23 Jan 2.9 01:38:36 10° S 01:40:18 13° SSE 01:41:59 10° SE visible
23 Jan 2.6 03:16:16 10° SW 03:18:03 22° SSW 03:18:03 22° SSW visible
24 Jan 1.6 02:46:30 10° SW 02:49:53 32° SSE 02:50:01 32° SSE visible
25 Jan 1.7 02:16:42 10° SW 02:20:07 32° SSE 02:21:59 20° ESE visible
25 Jan 4.0 03:56:04 10° WSW 03:56:07 10° WSW 03:56:07 10° WSW visible
